| time (UTC) | temp C | wind direction | speed KPH | gust KPH | rain 1hr cm | rain 24hr cm | rain mn cm | humidity % | barometer mb |
| 20260509212637 | 18 | 299 | 6.4 | 11.3 | 0.00 | 0.38 | 0.38 | 57 | 1007.8 |
| 20260509212133 | 18 | 288 | 11.3 | 12.9 | 0.00 | 0.38 | 0.38 | 57 | 1007.9 |
| 20260509211630 | 20 | 283 | 3.2 | 3.2 | 0.00 | 0.38 | 0.38 | 58 | 1007.9 |
| 20260509211126 | 20 | 288 | 6.4 | 11.3 | 0.00 | 0.38 | 0.38 | 57 | 1008.1 |
| 20260509210623 | 20 | 316 | 8.0 | 9.7 | 0.00 | 0.38 | 0.38 | 56 | 1008.2 |
| 20260509210120 | 19 | 270 | 6.4 | 8.0 | 0.00 | 0.38 | 0.38 | 58 | 1008.2 |
| 20260509205614 | 19 | 174 | 11.3 | 12.9 | 0.00 | 0.38 | 0.38 | 59 | 1008.3 |
| 20260509205109 | 18 | 284 | 9.7 | 12.9 | 0.00 | 0.38 | 0.38 | 59 | 1008.3 |
| 20260509204606 | 18 | 309 | 3.2 | 3.2 | 0.00 | 0.38 | 0.38 | 61 | 1008.3 |
| 20260509204102 | 18 | 330 | 3.2 | 3.2 | 0.00 | 0.38 | 0.38 | 61 | 1008.4 |
| 20260509203558 | 18 | 280 | 9.7 | 12.9 | 0.00 | 0.38 | 0.38 | 61 | 1008.4 |
| 20260509203056 | 19 | 294 | 4.8 | 9.7 | 0.00 | 0.38 | 0.38 | 59 | 1008.6 |
| 20260509202550 | 18 | 335 | 3.2 | 3.2 | 0.00 | 0.38 | 0.38 | 64 | 1008.6 |
| 20260509202046 | 18 | 350 | 3.2 | 3.2 | 0.00 | 0.38 | 0.38 | 64 | 1008.5 |
| 20260509201541 | 18 | 229 | 11.3 | 14.5 | 0.00 | 0.38 | 0.38 | 64 | 1008.5 |
| 20260509201039 | 18 | 187 | 9.7 | 12.9 | 0.00 | 0.38 | 0.38 | 64 | 1008.6 |
| 20260509200533 | 17 | 323 | 11.3 | 12.9 | 0.00 | 0.38 | 0.38 | 64 | 1008.6 |
| 20260509200030 | 17 | 310 | 3.2 | 3.2 | 0.00 | 0.38 | 0.38 | 65 | 1008.7 |
| 20260509195526 | 17 | 271 | 8.0 | 9.7 | 0.00 | 0.38 | 0.38 | 65 | 1008.7 |
| 20260509195025 | 18 | 320 | 6.4 | 8.0 | 0.00 | 0.38 | 0.38 | 65 | 1008.6 |
| 20260509194520 | 18 | 328 | 4.8 | 8.0 | 0.00 | 0.38 | 0.38 | 64 | 1009.0 |
| 20260509194018 | 18 | 322 | 6.4 | 9.7 | 0.00 | 0.38 | 0.38 | 65 | 1008.8 |
| 20260509193513 | 17 | 278 | 3.2 | 4.8 | 0.00 | 0.38 | 0.38 | 67 | 1009.0 |
| 20260509193010 | 17 | 239 | 8.0 | 9.7 | 0.00 | 0.38 | 0.38 | 67 | 1009.1 |
| 20260509192506 | 17 | 276 | 8.0 | 11.3 | 0.00 | 0.38 | 0.38 | 65 | 1009.4 |
| 20260509192001 | 17 | 321 | 6.4 | 9.7 | 0.00 | 0.38 | 0.38 | 69 | 1009.3 |
| 20260509191456 | 17 | 309 | 4.8 | 8.0 | 0.00 | 0.38 | 0.38 | 68 | 1009.0 |
| 20260509190952 | 17 | 275 | 1.6 | 3.2 | 0.00 | 0.38 | 0.38 | 69 | 1009.4 |
| 20260509190449 | 17 | 332 | 9.7 | 14.5 | 0.00 | 0.38 | 0.38 | 68 | 1009.5 |
| 20260509185947 | 17 | 277 | 12.9 | 14.5 | 0.00 | 0.38 | 0.38 | 69 | 1009.5 |
| 20260509185444 | 16 | 299 | 6.4 | 8.0 | 0.00 | 0.38 | 0.38 | 69 | 1009.7 |
| 20260509184940 | 17 | 253 | 8.0 | 11.3 | 0.00 | 0.38 | 0.38 | 67 | 1009.5 |
| 20260509184438 | 17 | 268 | 8.0 | 11.3 | 0.00 | 0.38 | 0.38 | 68 | 1009.6 |
| 20260509183934 | 17 | 292 | 3.2 | 3.2 | 0.00 | 0.38 | 0.38 | 69 | 1009.8 |
| 20260509183429 | 17 | 278 | 6.4 | 8.0 | 0.00 | 0.38 | 0.38 | 71 | 1009.5 |
| 20260509182926 | 16 | 241 | 4.8 | 4.8 | 0.00 | 0.38 | 0.38 | 75 | 1009.5 |
| 20260509182422 | 16 | 288 | 8.0 | 9.7 | 0.00 | 0.38 | 0.38 | 74 | 1009.8 |
| 20260509181920 | 15 | 321 | 1.6 | 3.2 | 0.00 | 0.38 | 0.38 | 81 | 1009.8 |
| 20260509181418 | 15 | 286 | 4.8 | 4.8 | 0.00 | 0.38 | 0.38 | 80 | 1009.9 |
| 20260509180915 | 15 | 165 | 4.8 | 8.0 | 0.00 | 0.38 | 0.38 | 78 | 1009.8 |
| 20260509180410 | 15 | 195 | 4.8 | 4.8 | 0.00 | 0.38 | 0.38 | 78 | 1009.8 |
| 20260509175907 | 15 | 285 | 4.8 | 8.0 | 0.00 | 0.38 | 0.38 | 77 | 1009.8 |
| 20260509175403 | 15 | 342 | 0.0 | 1.6 | 0.00 | 0.38 | 0.38 | 77 | 1009.8 |
| 20260509174859 | 15 | 293 | 4.8 | 4.8 | 0.00 | 0.38 | 0.38 | 76 | 1009.6 |
| 20260509174356 | 16 | 21 | 6.4 | 8.0 | 0.00 | 0.38 | 0.38 | 75 | 1009.7 |
| 20260509173852 | 16 | 287 | 8.0 | 9.7 | 0.00 | 0.38 | 0.38 | 76 | 1009.7 |
| 20260509173346 | 16 | 314 | 4.8 | 4.8 | 0.00 | 0.38 | 0.38 | 76 | 1009.9 |
| 20260509172843 | 16 | 261 | 8.0 | 11.3 | 0.00 | 0.38 | 0.38 | 75 | 1009.6 |
| 20260509172339 | 15 | 263 | 4.8 | 9.7 | 0.00 | 0.38 | 0.38 | 77 | 1009.6 |
| 20260509171836 | 15 | 246 | 14.5 | 17.7 | 0.00 | 0.38 | 0.38 | 76 | 1009.7 |
| 20260509171331 | 15 | 305 | 8.0 | 11.3 | 0.00 | 0.38 | 0.38 | 77 | 1009.6 |
| 20260509170828 | 15 | 259 | 4.8 | 8.0 | 0.00 | 0.38 | 0.38 | 79 | 1009.7 |
| 20260509170324 | 15 | 291 | 11.3 | 11.3 | 0.00 | 0.38 | 0.38 | 78 | 1009.7 |
| 20260509165824 | 15 | 203 | 6.4 | 9.7 | 0.00 | 0.38 | 0.38 | 78 | 1009.5 |
| 20260509165318 | 15 | 324 | 4.8 | 8.0 | 0.00 | 0.38 | 0.38 | 79 | 1009.4 |
| 20260509164815 | 16 | 327 | 1.6 | 1.6 | 0.00 | 0.38 | 0.38 | 79 | 1009.4 |
| 20260509164311 | 16 | 273 | 6.4 | 9.7 | 0.00 | 0.38 | 0.38 | 78 | 1009.4 |
| 20260509163807 | 15 | 292 | 1.6 | 1.6 | 0.00 | 0.38 | 0.38 | 82 | 1009.5 |
| 20260509163305 | 15 | 280 | 3.2 | 3.2 | 0.00 | 0.38 | 0.38 | 82 | 1009.6 |
| 20260509162804 | 15 | 253 | 8.0 | 11.3 | 0.00 | 0.38 | 0.38 | 82 | 1009.8 |
| 20260509162306 | 15 | 198 | 8.0 | 12.9 | 0.00 | 0.38 | 0.38 | 85 | 1009.8 |
| 20260509161759 | 14 | 313 | 3.2 | 4.8 | 0.00 | 0.38 | 0.38 | 87 | 1009.6 |
| 20260509161255 | 13 | 259 | 4.8 | 4.8 | 0.00 | 0.38 | 0.38 | 87 | 1009.7 |
| 20260509160750 | 13 | 306 | 1.6 | 3.2 | 0.00 | 0.38 | 0.38 | 87 | 1009.7 |
| 20260509160247 | 13 | 316 | 3.2 | 4.8 | 0.00 | 0.38 | 0.38 | 87 | 1009.7 |
| 20260509155742 | 13 | 356 | 4.8 | 4.8 | 0.00 | 0.38 | 0.38 | 91 | 1009.6 |
| 20260509155239 | 12 | 272 | 4.8 | 8.0 | 0.00 | 0.38 | 0.38 | 92 | 1009.7 |
| 20260509154735 | 12 | 337 | 6.4 | 9.7 | 0.00 | 0.38 | 0.38 | 93 | 1009.9 |
| 20260509154232 | 12 | 315 | 3.2 | 3.2 | 0.00 | 0.38 | 0.38 | 93 | 1009.8 |
| 20260509153730 | 12 | 302 | 3.2 | 3.2 | 0.13 | 0.38 | 0.38 | 93 | 1009.8 |
| 20260509153225 | 12 | 297 | 4.8 | 4.8 | 0.13 | 0.38 | 0.38 | 93 | 1009.7 |
| 20260509152722 | 12 | 313 | 4.8 | 4.8 | 0.13 | 0.38 | 0.38 | 93 | 1009.5 |
| 20260509152218 | 12 | 284 | 4.8 | 4.8 | 0.00 | 0.36 | 0.36 | 93 | 1009.5 |
| 20260509151715 | 11 | 327 | 1.6 | 1.6 | 0.00 | 0.36 | 0.36 | 93 | 1009.6 |
| 20260509151212 | 12 | 313 | 4.8 | 8.0 | 0.00 | 0.36 | 0.36 | 94 | 1009.8 |
| 20260509150710 | 11 | 299 | 6.4 | 8.0 | 0.00 | 0.36 | 0.36 | 94 | 1009.9 |
| 20260509150208 | 12 | 329 | 1.6 | 3.2 | 0.00 | 0.36 | 0.36 | 94 | 1009.7 |
| 20260509145704 | 12 | 333 | 0.0 | 0.0 | 0.00 | 0.36 | 0.36 | 94 | 1009.7 |
| 20260509145159 | 11 | 302 | 1.6 | 3.2 | 0.00 | 0.36 | 0.36 | 94 | 1009.8 |
| 20260509144656 | 11 | 292 | 1.6 | 3.2 | 0.00 | 0.36 | 0.36 | 95 | 1009.7 |
| 20260509144154 | 11 | 340 | 1.6 | 3.2 | 0.00 | 0.36 | 0.36 | 95 | 1009.5 |
| 20260509143651 | 11 | 334 | 0.0 | 1.6 | 0.00 | 0.36 | 0.36 | 95 | 1009.7 |
| 20260509143148 | 11 | 325 | 3.2 | 3.2 | 0.00 | 0.36 | 0.36 | 95 | 1009.7 |
| 20260509142643 | 11 | 304 | 4.8 | 8.0 | 0.00 | 0.36 | 0.36 | 95 | 1009.7 |
| 20260509142140 | 11 | 214 | 3.2 | 4.8 | 0.00 | 0.36 | 0.36 | 95 | 1009.8 |
| 20260509141636 | 11 | 278 | 8.0 | 9.7 | 0.00 | 0.36 | 0.36 | 95 | 1009.7 |
| 20260509141132 | 11 | 304 | 3.2 | 3.2 | 0.00 | 0.36 | 0.36 | 95 | 1009.8 |
| 20260509140630 | 11 | 348 | 0.0 | 1.6 | 0.00 | 0.36 | 0.36 | 96 | 1009.8 |
| 20260509140127 | 11 | 279 | 8.0 | 9.7 | 0.00 | 0.36 | 0.36 | 96 | 1009.8 |
| 20260509135624 | 11 | 299 | 0.0 | 1.6 | 0.00 | 0.36 | 0.36 | 96 | 1009.9 |
| 20260509135123 | 11 | 343 | 1.6 | 1.6 | 0.00 | 0.36 | 0.36 | 96 | 1009.7 |
| 20260509134619 | 11 | 290 | 3.2 | 3.2 | 0.00 | 0.36 | 0.36 | 96 | 1010.0 |
| 20260509134116 | 11 | 205 | 3.2 | 4.8 | 0.18 | 0.36 | 0.36 | 96 | 1009.9 |
| 20260509133613 | 11 | 319 | 3.2 | 3.2 | 0.30 | 0.36 | 0.36 | 96 | 1009.9 |
| 20260509133111 | 11 | 229 | 3.2 | 4.8 | 0.13 | 0.33 | 0.33 | 96 | 1009.8 |
| 20260509132609 | 11 | 329 | 0.0 | 1.6 | 0.13 | 0.33 | 0.33 | 96 | 1010.0 |
| 20260509132107 | 11 | 338 | 1.6 | 1.6 | 0.00 | 0.30 | 0.30 | 96 | 1010.1 |
| 20260509131602 | 11 | 349 | 1.6 | 1.6 | 0.36 | 0.30 | 0.30 | 96 | 1010.1 |
| 20260509131100 | 11 | 332 | 1.6 | 1.6 | 0.48 | 0.30 | 0.30 | 96 | 1009.7 |
| 20260509130555 | 11 | 307 | 3.2 | 3.2 | 0.48 | 0.28 | 0.28 | 96 | 1010.0 |
| 20260509130053 | 11 | 314 | 3.2 | 3.2 | 0.30 | 0.23 | 0.23 | 95 | 1010.0 |
| 20260509125548 | 11 | 329 | 1.6 | 1.6 | 0.30 | 0.20 | 0.20 | 95 | 1010.2 |
| 20260509125045 | 11 | 316 | 3.2 | 3.2 | 0.18 | 0.18 | 0.18 | 95 | 1009.9 |
| 20260509124542 | 11 | 312 | 3.2 | 4.8 | 0.18 | 0.18 | 0.18 | 95 | 1010.1 |
| 20260509124039 | 11 | 326 | 4.8 | 11.3 | 0.00 | 0.15 | 0.15 | 95 | 1010.2 |
| 20260509123537 | 11 | 299 | 1.6 | 3.2 | 0.00 | 0.15 | 0.15 | 95 | 1010.1 |
| 20260509123033 | 11 | 297 | 3.2 | 3.2 | 0.13 | 0.15 | 0.15 | 95 | 1010.1 |
| 20260509122530 | 11 | 266 | 1.6 | 1.6 | 0.30 | 0.15 | 0.15 | 95 | 1010.2 |
| 20260509122027 | 11 | 296 | 4.8 | 8.0 | 0.18 | 0.13 | 0.13 | 95 | 1009.9 |
| 20260509121523 | 10 | 335 | 0.0 | 1.6 | 0.00 | 0.10 | 0.10 | 95 | 1010.0 |
| 20260509121021 | 10 | 322 | 1.6 | 1.6 | 0.00 | 0.10 | 0.10 | 95 | 1010.2 |
| 20260509120519 | 10 | 263 | 1.6 | 3.2 | 0.13 | 0.10 | 0.10 | 95 | 1010.2 |
| 20260509120017 | 10 | 291 | 3.2 | 3.2 | 0.13 | 0.10 | 0.10 | 94 | 1010.4 |
| 20260509115514 | 10 | 334 | 1.6 | 3.2 | 0.00 | 0.08 | 0.08 | 94 | 1010.3 |
| 20260509115012 | 10 | 254 | 3.2 | 3.2 | 0.18 | 0.08 | 0.08 | 94 | 1010.2 |
| 20260509114509 | 10 | 326 | 6.4 | 9.7 | 0.30 | 0.08 | 0.08 | 94 | 1010.1 |
| 20260509114009 | 10 | 333 | 0.0 | 1.6 | 0.13 | 0.05 | 0.05 | 94 | 1010.2 |
| 20260509113506 | 10 | 249 | 4.8 | 4.8 | 0.13 | 0.05 | 0.05 | 94 | 1010.0 |
| 20260509113004 | 10 | 260 | 3.2 | 3.2 | 0.00 | 0.03 | 0.03 | 94 | 1009.9 |
| 20260509112500 | 10 | 339 | 0.0 | 0.0 | 0.00 | 0.03 | 0.03 | 94 | 1010.0 |
| 20260509111956 | 10 | 303 | 1.6 | 3.2 | 0.00 | 0.03 | 0.03 | 94 | 1009.7 |
| 20260509111454 | 10 | 302 | 3.2 | 3.2 | 0.00 | 0.03 | 0.03 | 95 | 1009.9 |
| 20260509110951 | 10 | 332 | 0.0 | 0.0 | 0.00 | 0.03 | 0.03 | 95 | 1009.8 |
| 20260509110447 | 10 | 337 | 0.0 | 0.0 | 0.00 | 0.03 | 0.03 | 95 | 1009.9 |
| 20260509105945 | 10 | 330 | 0.0 | 1.6 | 0.00 | 0.03 | 0.03 | 96 | 1009.7 |
| 20260509105443 | 10 | 238 | 4.8 | 4.8 | 0.00 | 0.03 | 0.03 | 97 | 1009.6 |
| 20260509104940 | 10 | 311 | 1.6 | 1.6 | 0.00 | 0.03 | 0.03 | 97 | 1009.8 |
| 20260509104437 | 10 | 322 | 1.6 | 1.6 | 0.00 | 0.03 | 0.03 | 98 | 1009.7 |
| 20260509103934 | 10 | 323 | 1.6 | 1.6 | 0.00 | 0.03 | 0.03 | 98 | 1009.7 |
| 20260509103432 | 9 | 316 | 0.0 | 1.6 | 0.00 | 0.03 | 0.03 | 98 | 1009.9 |
| 20260509102930 | 9 | 292 | 3.2 | 3.2 | 0.00 | 0.03 | 0.03 | 98 | 1009.8 |
| 20260509102427 | 9 | 328 | 0.0 | 0.0 | 0.00 | 0.03 | 0.03 | 98 | 1010.0 |
| 20260509101923 | 8 | 328 | 0.0 | 0.0 | 0.00 | 0.03 | 0.03 | 98 | 1009.8 |
| 20260509101419 | 9 | 328 | 0.0 | 0.0 | 0.00 | 0.03 | 0.03 | 98 | 1010.0 |
| 20260509100917 | 9 | 328 | 0.0 | 0.0 | 0.00 | 0.03 | 0.03 | 98 | 1010.0 |
| 20260509100414 | 8 | 328 | 0.0 | 0.0 | 0.18 | 0.03 | 0.03 | 98 | 1009.7 |
| 20260509095910 | 8 | 328 | 0.0 | 0.0 | 0.18 | 0.03 | 0.03 | 98 | 1009.7 |
| 20260509095408 | 9 | 328 | 0.0 | 0.0 | 0.00 | 0.00 | 0.00 | 98 | 1010.1 |
| 20260509094905 | 9 | 328 | 0.0 | 0.0 | 0.00 | 0.00 | 0.00 | 98 | 1010.0 |
| 20260509094401 | 9 | 328 | 0.0 | 0.0 | 0.00 | 0.00 | 0.00 | 98 | 1010.1 |
| 20260509093859 | 8 | 328 | 0.0 | 0.0 | 0.00 | 0.00 | 0.00 | 98 | 1010.3 |
| 20260509093356 | 9 | 328 | 0.0 | 0.0 | 0.00 | 0.00 | 0.00 | 98 | 1010.2 |
| 20260509092854 | 8 | 328 | 0.0 | 0.0 | 0.00 | 0.00 | 0.00 | 98 | 1010.4 |
| 20260509092352 | 8 | 328 | 0.0 | 0.0 | 0.00 | 0.00 | 0.00 | 98 | 1010.3 |
| 20260509091850 | 8 | 328 | 0.0 | 0.0 | 0.00 | 0.00 | 0.00 | 98 | 1010.3 |
| 20260509091346 | 8 | 328 | 0.0 | 0.0 | 0.00 | 0.00 | 0.00 | 98 | 1010.2 |
| 20260509090844 | 8 | 328 | 0.0 | 0.0 | 0.00 | 0.00 | 0.00 | 98 | 1010.3 |
| 20260509090341 | 8 | 328 | 0.0 | 0.0 | 0.00 | 0.00 | 0.00 | 98 | 1010.5 |
| 20260509085838 | 8 | 328 | 0.0 | 0.0 | 0.00 | 0.00 | 0.00 | 98 | 1010.3 |
| 20260509085335 | 8 | 328 | 0.0 | 0.0 | 0.00 | 0.00 | 0.00 | 98 | 1010.3 |
| 20260509084832 | 8 | 328 | 0.0 | 0.0 | 0.00 | 0.00 | 0.00 | 98 | 1010.6 |
| 20260509084329 | 8 | 328 | 0.0 | 0.0 | 0.00 | 0.00 | 0.00 | 97 | 1010.5 |
| 20260509083827 | 8 | 328 | 0.0 | 0.0 | 0.00 | 0.00 | 0.00 | 97 | 1010.5 |
| 20260509083323 | 8 | 328 | 0.0 | 0.0 | 0.00 | 0.00 | 0.00 | 97 | 1010.4 |
| 20260509082820 | 8 | 328 | 0.0 | 0.0 | 0.00 | 0.00 | 0.00 | 97 | 1010.3 |
| 20260509082316 | 8 | 328 | 0.0 | 0.0 | 0.00 | 0.00 | 0.00 | 97 | 1010.2 |
| 20260509081814 | 8 | 328 | 0.0 | 0.0 | 0.00 | 0.00 | 0.00 | 97 | 1010.2 |
| 20260509081311 | 8 | 327 | 0.0 | 0.0 | 0.00 | 0.00 | 0.00 | 97 | 1010.4 |
| 20260509080809 | 8 | 327 | 1.6 | 1.6 | 0.00 | 0.00 | 0.00 | 97 | 1010.3 |
| 20260509080306 | 8 | 3 | 0.0 | 0.0 | 0.00 | 0.00 | 0.00 | 97 | 1010.2 |
| 20260509075804 | 8 | 4 | 0.0 | 0.0 | 0.00 | 0.00 | 0.00 | 97 | 1010.3 |
| 20260509075301 | 8 | 4 | 0.0 | 0.0 | 0.00 | 0.00 | 0.00 | 97 | 1010.2 |
| 20260509074758 | 8 | 4 | 0.0 | 0.0 | 0.00 | 0.00 | 0.00 | 97 | 1010.4 |
| 20260509074256 | 8 | 2 | 1.6 | 1.6 | 0.00 | 0.00 | 0.00 | 97 | 1010.6 |
| 20260509073752 | 8 | 14 | 0.0 | 0.0 | 0.00 | 0.00 | 0.00 | 97 | 1010.0 |
| 20260509073248 | 8 | 6 | 1.6 | 3.2 | 0.00 | 0.00 | 0.00 | 97 | 1010.5 |
| 20260509072745 | 8 | 0 | 0.0 | 0.0 | 0.00 | 0.00 | 0.00 | 97 | 1010.5 |
| 20260509072242 | 8 | 6 | 0.0 | 0.0 | 0.00 | 0.00 | 0.00 | 97 | 1010.2 |
| 20260509071738 | 8 | 353 | 1.6 | 1.6 | 0.00 | 0.00 | 0.00 | 97 | 1010.2 |
| 20260509071236 | 8 | 353 | 0.0 | 0.0 | 0.00 | 0.00 | 0.00 | 96 | 1010.2 |
| 20260509070733 | 8 | 353 | 0.0 | 0.0 | 0.00 | 0.00 | 0.00 | 96 | 1010.2 |
| 20260509070229 | 8 | 353 | 0.0 | 0.0 | 0.00 | 0.00 | 0.00 | 96 | 1010.2 |
| 20260509065726 | 8 | 353 | 0.0 | 0.0 | 0.00 | 0.00 | 0.00 | 96 | 1010.4 |
| 20260509065222 | 8 | 353 | 0.0 | 0.0 | 0.00 | 0.00 | 0.00 | 96 | 1010.3 |
| 20260509064718 | 8 | 353 | 0.0 | 0.0 | 0.00 | 0.00 | 0.00 | 96 | 1010.4 |
| 20260509064216 | 9 | 353 | 0.0 | 0.0 | 0.00 | 0.00 | 0.00 | 96 | 1010.4 |
| 20260509063713 | 9 | 353 | 0.0 | 0.0 | 0.00 | 0.00 | 0.00 | 96 | 1010.6 |
| 20260509063209 | 8 | 353 | 0.0 | 0.0 | 0.00 | 0.00 | 0.00 | 96 | 1010.7 |
| 20260509062707 | 9 | 353 | 0.0 | 0.0 | 0.00 | 0.00 | 0.00 | 96 | 1010.6 |
| 20260509062204 | 9 | 353 | 0.0 | 0.0 | 0.00 | 0.00 | 0.00 | 96 | 1010.7 |
| 20260509061701 | 8 | 353 | 0.0 | 0.0 | 0.00 | 0.00 | 0.00 | 95 | 1010.9 |
| 20260509061158 | 9 | 353 | 0.0 | 0.0 | 0.00 | 0.00 | 0.00 | 95 | 1011.1 |
| 20260509060655 | 9 | 353 | 0.0 | 0.0 | 0.00 | 0.00 | 0.00 | 95 | 1011.0 |
| 20260509060152 | 8 | 353 | 0.0 | 0.0 | 0.00 | 0.00 | 0.00 | 95 | 1011.0 |
| 20260509055647 | 9 | 353 | 0.0 | 0.0 | 0.00 | 0.00 | 0.00 | 95 | 1011.0 |
| 20260509055143 | 9 | 353 | 0.0 | 0.0 | 0.00 | 0.00 | 0.00 | 95 | 1011.0 |
| 20260509054640 | 9 | 353 | 0.0 | 0.0 | 0.00 | 0.00 | 0.00 | 95 | 1011.0 |
| 20260509054138 | 9 | 353 | 0.0 | 0.0 | 0.00 | 0.00 | 0.00 | 95 | 1011.3 |
| 20260509053636 | 9 | 353 | 0.0 | 0.0 | 0.00 | 0.00 | 0.00 | 95 | 1011.2 |
| 20260509053132 | 9 | 353 | 0.0 | 0.0 | 0.00 | 0.00 | 0.00 | 95 | 1011.5 |
| 20260509052631 | 9 | 353 | 0.0 | 0.0 | 0.00 | 0.00 | 0.00 | 95 | 1011.4 |
| 20260509052128 | 9 | 354 | 0.0 | 0.0 | 0.00 | 0.00 | 0.00 | 95 | 1011.2 |
| 20260509051626 | 9 | 353 | 0.0 | 0.0 | 0.00 | 0.00 | 0.00 | 95 | 1011.5 |
| 20260509051123 | 9 | 353 | 0.0 | 0.0 | 0.00 | 0.00 | 0.00 | 95 | 1011.5 |
| 20260509050620 | 9 | 5 | 0.0 | 0.0 | 0.00 | 0.00 | 0.00 | 95 | 1011.4 |
| 20260509050116 | 9 | 14 | 1.6 | 3.2 | 0.00 | 0.00 | 0.00 | 95 | 1011.3 |
| 20260509045614 | 9 | 5 | 0.0 | 0.0 | 0.00 | 0.00 | 0.00 | 96 | 1011.6 |
| 20260509045110 | 9 | 4 | 0.0 | 0.0 | 0.00 | 0.00 | 0.00 | 96 | 1011.7 |
| 20260509044608 | 9 | 4 | 0.0 | 1.6 | 0.00 | 0.00 | 0.00 | 96 | 1011.7 |
| 20260509044105 | 9 | 6 | 1.6 | 1.6 | 0.00 | 0.00 | 0.00 | 96 | 1011.7 |
| 20260509043601 | 9 | 21 | 0.0 | 0.0 | 0.00 | 0.00 | 0.00 | 96 | 1011.8 |
| 20260509043057 | 9 | 17 | 0.0 | 0.0 | 0.00 | 0.00 | 0.00 | 96 | 1011.7 |
| 20260509042553 | 9 | 17 | 0.0 | 0.0 | 0.00 | 0.00 | 0.00 | 96 | 1012.0 |
| 20260509042049 | 9 | 17 | 0.0 | 0.0 | 0.00 | 0.00 | 0.00 | 96 | 1011.9 |
| 20260509041546 | 9 | 17 | 0.0 | 0.0 | 0.00 | 0.00 | 0.00 | 96 | 1011.9 |
| 20260509041044 | 9 | 17 | 0.0 | 1.6 | 0.00 | 0.00 | 0.00 | 96 | 1012.2 |
| 20260509040542 | 9 | 17 | 0.0 | 0.0 | 0.00 | 0.00 | 0.00 | 96 | 1012.2 |
| 20260509040039 | 9 | 17 | 0.0 | 0.0 | 0.00 | 0.15 | 0.15 | 96 | 1012.4 |
| 20260509035536 | 9 | 17 | 0.0 | 0.0 | 0.00 | 0.15 | 0.15 | 96 | 1012.3 |
| 20260509035032 | 9 | 17 | 0.0 | 0.0 | 0.00 | 0.15 | 0.15 | 96 | 1012.5 |
| 20260509034531 | 10 | 15 | 0.0 | 0.0 | 0.13 | 0.15 | 0.15 | 96 | 1012.6 |
| 20260509034027 | 10 | 16 | 0.0 | 0.0 | 0.13 | 0.15 | 0.15 | 96 | 1012.6 |
| 20260509033524 | 10 | 336 | 0.0 | 0.0 | 0.00 | 0.13 | 0.13 | 96 | 1012.9 |
| 20260509033021 | 10 | 335 | 0.0 | 0.0 | 0.00 | 0.13 | 0.13 | 96 | 1013.0 |
| 20260509032518 | 10 | 335 | 0.0 | 0.0 | 0.00 | 0.13 | 0.13 | 96 | 1012.8 |
| 20260509032015 | 10 | 334 | 0.0 | 0.0 | 0.00 | 0.13 | 0.13 | 96 | 1013.0 |
| 20260509031513 | 10 | 334 | 0.0 | 0.0 | 0.00 | 0.13 | 0.13 | 95 | 1013.1 |
| 20260509031010 | 10 | 336 | 0.0 | 0.0 | 0.00 | 0.13 | 0.13 | 95 | 1013.2 |
| 20260509030508 | 10 | 336 | 0.0 | 0.0 | 0.00 | 0.13 | 0.13 | 95 | 1013.1 |
| 20260509030004 | 10 | 337 | 0.0 | 0.0 | 0.18 | 0.13 | 0.13 | 95 | 1013.4 |
| 20260509025500 | 10 | 337 | 0.0 | 0.0 | 0.18 | 0.13 | 0.13 | 95 | 1013.4 |
| 20260509024956 | 10 | 337 | 0.0 | 1.6 | 0.00 | 0.10 | 0.10 | 95 | 1013.3 |
| 20260509024452 | 10 | 337 | 0.0 | 0.0 | 0.00 | 0.10 | 0.10 | 95 | 1013.3 |
| 20260509023949 | 10 | 336 | 0.0 | 1.6 | 0.18 | 0.10 | 0.10 | 94 | 1013.4 |
| 20260509023446 | 10 | 326 | 1.6 | 1.6 | 0.18 | 0.10 | 0.10 | 94 | 1013.4 |
| 20260509022943 | 10 | 355 | 1.6 | 1.6 | 0.00 | 0.08 | 0.08 | 94 | 1013.3 |
| 20260509022440 | 10 | 347 | 3.2 | 3.2 | 0.00 | 0.08 | 0.08 | 93 | 1013.3 |
| 20260509021938 | 10 | 335 | 1.6 | 3.2 | 0.00 | 0.08 | 0.08 | 93 | 1013.2 |
| 20260509021429 | 10 | 335 | 0.0 | 0.0 | 0.00 | 0.08 | 0.08 | 92 | 1013.2 |
| 20260509020926 | 10 | 335 | 0.0 | 0.0 | 0.13 | 0.08 | 0.08 | 92 | 1013.1 |
| 20260509020424 | 10 | 335 | 1.6 | 1.6 | 0.13 | 0.08 | 0.08 | 91 | 1013.0 |
| 20260509015921 | 10 | 323 | 0.0 | 0.0 | 0.13 | 0.08 | 0.08 | 91 | 1012.6 |
| 20260509015420 | 10 | 323 | 0.0 | 1.6 | 0.00 | 0.05 | 0.05 | 91 | 1012.6 |
| 20260509014916 | 10 | 8 | 0.0 | 0.0 | 0.00 | 0.05 | 0.05 | 91 | 1012.3 |
| 20260509014413 | 10 | 8 | 0.0 | 0.0 | 0.00 | 0.05 | 0.05 | 91 | 1012.5 |
| 20260509013910 | 10 | 8 | 0.0 | 0.0 | 0.00 | 0.05 | 0.05 | 90 | 1012.5 |
| 20260509013406 | 10 | 3 | 0.0 | 0.0 | 0.00 | 0.05 | 0.05 | 90 | 1012.9 |
| 20260509012902 | 10 | 1 | 3.2 | 3.2 | 0.00 | 0.05 | 0.05 | 90 | 1012.8 |
| 20260509012358 | 10 | 9 | 1.6 | 1.6 | 0.00 | 0.05 | 0.05 | 90 | 1012.5 |
| 20260509011856 | 10 | 9 | 0.0 | 0.0 | 0.00 | 0.05 | 0.05 | 90 | 1012.2 |
| 20260509011353 | 10 | 10 | 0.0 | 0.0 | 0.00 | 0.05 | 0.05 | 90 | 1012.1 |
| 20260509010852 | 10 | 336 | 1.6 | 1.6 | 0.00 | 0.05 | 0.05 | 90 | 1012.2 |
| 20260509010348 | 10 | 343 | 0.0 | 0.0 | 0.00 | 0.05 | 0.05 | 90 | 1011.9 |
| 20260509005845 | 10 | 23 | 1.6 | 3.2 | 0.00 | 0.05 | 0.05 | 90 | 1012.1 |
| 20260509005343 | 10 | 4 | 1.6 | 1.6 | 0.00 | 0.05 | 0.05 | 91 | 1011.9 |
| 20260509004843 | 10 | 9 | 0.0 | 1.6 | 0.00 | 0.05 | 0.05 | 91 | 1011.6 |
| 20260509004339 | 10 | 353 | 1.6 | 1.6 | 0.00 | 0.05 | 0.05 | 90 | 1012.2 |
| 20260509003837 | 10 | 334 | 0.0 | 0.0 | 0.00 | 0.05 | 0.05 | 90 | 1011.7 |
| 20260509003335 | 10 | 336 | 0.0 | 0.0 | 0.00 | 0.05 | 0.05 | 90 | 1011.9 |
| 20260509002832 | 10 | 336 | 1.6 | 1.6 | 0.00 | 0.05 | 0.05 | 89 | 1012.0 |
| 20260509002329 | 10 | 336 | 0.0 | 0.0 | 0.00 | 0.05 | 0.05 | 89 | 1012.0 |
| 20260509001827 | 10 | 6 | 0.0 | 0.0 | 0.00 | 0.05 | 0.05 | 88 | 1011.8 |
| 20260509001323 | 10 | 5 | 1.6 | 3.2 | 0.00 | 0.05 | 0.05 | 88 | 1011.7 |
| 20260509000821 | 11 | 345 | 0.0 | 0.0 | 0.00 | 0.05 | 0.05 | 88 | 1011.6 |
| 20260509000318 | 11 | 4 | 0.0 | 1.6 | 0.00 | 0.05 | 0.05 | 87 | 1011.6 |
| 20260508235814 | 11 | 357 | 1.6 | 1.6 | 0.00 | 0.05 | 0.05 | 87 | 1011.7 |
| 20260508235311 | 11 | 351 | 0.0 | 1.6 | 0.00 | 0.05 | 0.05 | 86 | 1011.8 |
| 20260508234808 | 11 | 349 | 0.0 | 0.0 | 0.00 | 0.05 | 0.05 | 86 | 1011.7 |
| 20260508234259 | 11 | 329 | 1.6 | 1.6 | 0.00 | 0.05 | 0.05 | 85 | 1011.8 |
| 20260508233758 | 11 | 340 | 1.6 | 1.6 | 0.00 | 0.05 | 0.05 | 84 | 1011.6 |
| 20260508233257 | 11 | 307 | 1.6 | 1.6 | 0.00 | 0.05 | 0.05 | 84 | 1011.8 |
| 20260508232754 | 11 | 339 | 1.6 | 1.6 | 0.00 | 0.05 | 0.05 | 85 | 1011.8 |
| 20260508232250 | 11 | 344 | 0.0 | 0.0 | 0.00 | 0.05 | 0.05 | 84 | 1012.0 |
| 20260508231748 | 11 | 0 | 0.0 | 0.0 | 0.00 | 0.05 | 0.05 | 84 | 1011.8 |
| 20260508231244 | 11 | 9 | 0.0 | 0.0 | 0.00 | 0.05 | 0.05 | 84 | 1011.9 |
| 20260508230741 | 11 | 16 | 1.6 | 1.6 | 0.00 | 0.05 | 0.05 | 84 | 1011.7 |
| 20260508230237 | 11 | 359 | 0.0 | 1.6 | 0.00 | 0.05 | 0.05 | 83 | 1011.9 |
| 20260508225735 | 11 | 7 | 1.6 | 1.6 | 0.00 | 0.05 | 0.05 | 83 | 1011.8 |
| 20260508225232 | 11 | 24 | 0.0 | 1.6 | 0.00 | 0.05 | 0.05 | 83 | 1012.1 |
| 20260508224729 | 12 | 12 | 1.6 | 1.6 | 0.00 | 0.05 | 0.05 | 82 | 1011.8 |
| 20260508224227 | 12 | 39 | 1.6 | 1.6 | 0.00 | 0.05 | 0.05 | 84 | 1012.1 |
| 20260508223724 | 11 | 3 | 0.0 | 1.6 | 0.18 | 0.05 | 0.05 | 83 | 1012.1 |
| 20260508223221 | 11 | 24 | 1.6 | 1.6 | 0.18 | 0.05 | 0.05 | 83 | 1011.9 |
| 20260508222719 | 12 | 18 | 1.6 | 1.6 | 0.00 | 0.03 | 0.03 | 82 | 1012.1 |
| 20260508222216 | 12 | 7 | 1.6 | 1.6 | 0.00 | 0.03 | 0.03 | 82 | 1012.2 |
| 20260508221712 | 12 | 9 | 0.0 | 0.0 | 0.00 | 0.03 | 0.03 | 82 | 1011.8 |
| 20260508221208 | 12 | 8 | 0.0 | 0.0 | 0.00 | 0.03 | 0.03 | 81 | 1012.0 |
| 20260508220704 | 12 | 9 | 0.0 | 1.6 | 0.00 | 0.03 | 0.03 | 83 | 1012.1 |
| 20260508220201 | 12 | 8 | 0.0 | 1.6 | 0.00 | 0.03 | 0.03 | 84 | 1012.0 |
| 20260508215658 | 12 | 63 | 1.6 | 3.2 | 0.00 | 0.03 | 0.03 | 84 | 1012.2 |
| 20260508215154 | 12 | 20 | 0.0 | 0.0 | 0.00 | 0.03 | 0.03 | 84 | 1012.3 |
| 20260508214651 | 12 | 12 | 1.6 | 1.6 | 0.00 | 0.03 | 0.03 | 84 | 1012.4 |
| 20260508214149 | 12 | 13 | 1.6 | 1.6 | 0.00 | 0.03 | 0.03 | 82 | 1012.2 |
| 20260508213645 | 12 | 328 | 1.6 | 1.6 | 0.00 | 0.03 | 0.03 | 78 | 1012.2 |
| 20260508213141 | 12 | 327 | 0.0 | 1.6 | 0.00 | 0.03 | 0.03 | 75 | 1012.1 |